Regional Weather Roundup
Issued by NWS Mobile, AL

Home | Current Version | Previous Version | Text Only | Print | Product List | Glossary On
Versions: 1 2 3 4 5 6 7 8 9 10 11 12 13 14 15 16 17 18 19 20 21 22 23 24 25 26 27
000
ASUS44 KMOB 212313
RWRMOB
REGIONAL WEATHER ROUNDUP
NATIONAL WEATHER SERVICE MOBILE AL
600 PM CDT THU SEP 21 2017

NOTE: "FAIR" INDICATES FEW OR NO CLOUDS BELOW 12,000 FEET WITH NO
      SIGNIFICANT WEATHER AND/OR OBSTRUCTIONS TO VISIBILITY.

  * THESE STATIONS ARE PART OF THE UNIVERSITY OF SOUTH ALABAMA
    MESONET AND ARE NOT UNDER NWS OR FAA QUALITY CONTROL.

ALZ061>064-220000-
COASTAL ALABAMA

CITY           SKY/WX    TMP DP  RH WIND       PRES   REMARKS
MOBILE REG APT CLOUDY    83  70  64 S3        29.96R
BROOKLEY FIELD PTCLDY    83  77  82 SW6       29.96S
USA CAMPUS*    NOT AVBL
DOG RIVER*     NOT AVBL


CITY           SKY/WX    TMP DP  RH WIND       PRES   REMARKS
GULF SHORES    CLEAR     81  75  82 SE5       29.95R

$$

ALZ051>060-220000-
INTERIOR SOUTHWEST AND SOUTH CENTRAL ALABAMA

CITY           SKY/WX    TMP DP  RH WIND       PRES   REMARKS
GREENVILLE     CLEAR     88  68  51 N3        29.96F
EVERGREEN      CLEAR     88  70  55 N3        29.95F
ATMORE*          N/A    N/A N/A N/A N6          N/A
ANDALUSIA/OPP  CLEAR     90  70  51 NE5       29.94F HX  95
ANDALUSIA*       N/A     86  70  58 NE3       29.96S
FLORALA APT    NOT AVBL
FLORALA*         N/A     79  73  83 CALM      30.62F

$$

FLZ001>006-220000-
WESTERN FLORIDA PANHANDLE

CITY           SKY/WX    TMP DP  RH WIND       PRES   REMARKS
PENSACOLA      PTCLDY    85  74  69 S7        29.94S
NAS PENSACOLA  PTCLDY    82  73  74 SW5       29.94S
MILTON         MOCLDY    79  76  90 CALM      29.94F
WHTNG S FIELD  MOCLDY    84  75  74 CALM      29.94F


CITY           SKY/WX    TMP DP  RH WIND       PRES   REMARKS
JAY*             N/A     86  70  58 SE7       29.94S
DUKE FIELD     MOCLDY    82  73  72 SE5       29.95S
CRESTVIEW      CLOUDY    82  74  76 CALM      29.96S
VALPARAISO     PTCLDY    82  67  60 SE10      29.94F
DESTIN         CLEAR     85  64  49 SE6       29.94F

$$

MSZ076-079-220000-
INTERIOR SOUTHEAST MISSISSIPPI

CITY           SKY/WX    TMP DP  RH WIND       PRES   REMARKS
LEAKESVILLE*   NOT AVBL
AGRICOLA*        N/A     84  73  70 CALM      29.95R

$$

MARINE OBSERVATIONS

STATION/POSITION TIME  TEMP    WIND        PRES    WAVE
                       AIR SEA DIR/SP/G            HT/PER
                 (UTC) (F)     (DEG/KT/KT) (MB)    (FT/S)
PASCAGOULA       2248   83      80/  5/ 10 1014.6R
PETIT BOIS ISLND 2248   83     180/  5/  5 1014.9F
GRAND BAY        2145   84     180/  8     1015.0S
KATRINA CUT      2230   83     200/  6     1013.9F
CEDAR POINT      2230   84     200/  6     1014.2R
E DAUPHIN ISLAND 2300   83     180/  6/  7 1013.9R
MIDDLE BAY LIGHT 2230   84     180/  8     1014.6R
USCG MOBILE BAY  2248   83 81  210/  4/  7 1014.1R
STATE DOCKS      2248   85 82              1014.1R
MEAHER PARK      2230   84     170/  7     1013.5F
WEEKS BAY        2145   86                 1014.0S
FORT MORGAN      2248   83     170/  8/  9   N/A
12 S ORANGE BCH  2250   83 85  200/  4/  6 1013.8F   1
PENSACOLA BAY    2248   85 84              1014.2R
64 S DAUPHIN ISL 2300   83 85   70/  2/  4 1014.0
67 S FORT MORGAN 2230   82      50/  4     1013.9S

$$

SELECTED LOCATIONS ACROSS THE REGION

CITY           SKY/WX    TMP DP  RH WIND       PRES   REMARKS
NEW ORLEANS    PTSUNNY   86  72  62 E5        29.94S
GULFPORT       CLOUDY    83  69  62 CALM      29.95R
PASCAGOULA AP  TSTM      77  72  84 E7        29.97R
PASCAGOULA*      N/A     75  72  88 N13         N/A
HATTIESBURG    SUNNY     89  71  55 E3        29.96R HX  95
LAUREL         SUNNY     88  71  57 E3        29.97R
MERIDIAN       SUNNY     90  69  50 E5        29.96S
JACKSON        SUNNY     90  72  55 CALM      29.96S HX  97
MONTGOMERY     CLEAR     91  65  41 N5        29.96S
TROY           CLEAR     87  71  58 N6        29.97S
ASHFORD*         N/A     86  70  58 NE3       29.96S
DOTHAN         PTCLDY    80  72  76 E9        30.00R
PANAMA CITY    CLOUDY    77  71  82 CALM      29.93F

$$





USA.gov is the U.S. government's official web portal to all federal, state and local government web resources and services.